This is the latest recevied weather packets stored in our database for station/object N5PA. If no packets are shown the sender has not sent any weather packets the latest 10 day(s).
| Time | Temp. | Humidity | Pressure | Rain* | Wind** | Luminosity | Snow |
|---|---|---|---|---|---|---|---|
| 1777688407 | 10.56° C | 47% | 1014.2 hPa | 1.27 mm | - | 1032 W/m² | - |
| 1777688106 | 10.56° C | 47% | 1014.3 hPa | 1.52 mm | - | 1034 W/m² | - |
| 1777687806 | 10.56° C | 47% | 1014.3 hPa | 1.52 mm | - | 1034 W/m² | - |
| 1777687506 | 10.56° C | 47% | 1014.2 hPa | 1.27 mm | - | 1032 W/m² | - |
| 1777687205 | 11.11° C | 47% | 1014.4 hPa | 1.27 mm | - | 1032 W/m² | - |
| 1777686906 | 10.56° C | 47% | 1014.5 hPa | 1.02 mm | - | 1037 W/m² | - |
| 1777686605 | 10.56° C | 48% | 1014.6 hPa | 1.02 mm | - | 1032 W/m² | - |
| 1777686307 | 10.56° C | 48% | 1014.4 hPa | 1.02 mm | - | 1034 W/m² | - |
| 1777686006 | 10.56° C | 48% | 1014.5 hPa | 1.02 mm | - | 1032 W/m² | - |
| 1777685704 | 10.56° C | 49% | 1014.3 hPa | 1.02 mm | - | 1030 W/m² | - |
| 1777685406 | 10.56° C | 49% | 1014 hPa | 1.02 mm | - | 1030 W/m² | - |
| 1777685105 | 10.56° C | 49% | 1013.6 hPa | 0.76 mm | - | 1032 W/m² | - |
| 1777684806 | 10.56° C | 49% | 1013.5 hPa | 0.76 mm | - | 1034 W/m² | - |
| 1777684507 | 10.56° C | 49% | 1013.5 hPa | 0.51 mm | - | 1032 W/m² | - |
| 1777684206 | 10.56° C | 49% | 1013.5 hPa | 0.51 mm | - | 1030 W/m² | - |
| 1777683906 | 10.56° C | 49% | 1013.3 hPa | 0.76 mm | - | 1030 W/m² | - |
| 1777683606 | 10.56° C | 49% | 1013 hPa | 0.76 mm | - | 1030 W/m² | - |
| 1777683307 | 10.56° C | 49% | 1012.8 hPa | 0.76 mm | - | 1032 W/m² | - |
| 1777683006 | 11.11° C | 49% | 1012.8 hPa | 1.02 mm | - | 1030 W/m² | - |
| 1777682705 | 11.11° C | 50% | 1013.3 hPa | 0.76 mm | - | 1034 W/m² | - |
| 1777682406 | 11.11° C | 49% | 1013.5 hPa | 0.76 mm | - | 1030 W/m² | - |
| 1777682105 | 11.11° C | 49% | 1013.3 hPa | 0.51 mm | - | 1034 W/m² | - |
| 1777681806 | 11.11° C | 50% | 1013.2 hPa | 0.51 mm | - | 1034 W/m² | - |
| 1777681505 | 11.11° C | 50% | 1013.3 hPa | 0.76 mm | - | 1030 W/m² | - |
| 1777681206 | 11.11° C | 50% | 1013.3 hPa | 0.76 mm | - | 1030 W/m² | - |
* Rain latest hour (hover to see other rain measurements)
** Current wind speed in m/s (hover to see current wind gust speed)